CAPE
0 0 0 0 0 15 44 59 44 51 17 0 4 115 51 21 32 0 66 116 151 366 903 1545 1967 1728 1360 1293 1125 724 346 288 219 373 237 337 475 599 645 757 910 650 605 547 443 333 243 203 174
0 0 0 0 0 0 0 71 30 0 2 2 18 266 24 0 329 272 170 85 150 368 618 1138 1757 1508 1113 489 849 485 376 291 412 376 241 483 580 868 713 816 743 689 609 430 236 164 150 152 173
0 0 0 0 0 1 0 68 0 0 1 2 25 224 10 249 321 245 125 43 135 152 264 822 1666 1358 1141 499 516 528 376 403 487 427 312 539 667 665 918 846 751 552 388 262 158 130 154 194 235
0 0 0 0 1 0 18 79 1 0 2 1 2 204 0 289 365 382 140 1 0 33 132 986 1385 1350 900 646 600 488 395 504 533 453 397 489 596 637 792 649 635 502 335 179 135 130 124 153 240
0 0 0 0 0 0 19 51 46 2 4 372 615 296 106 643 550 243 4 0 2 45 344 607 1210 972 746 611 496 415 503 660 780 514 463 545 733 733 733 601 462 346 235 148 122 119 257 418 515
0 0 0 0 0 16 37 35 21 13 0 331 190 130 116 499 391 150 27 8 38 251 371 615 982 1095 1036 788 577 633 967 971 893 687 596 672 742 724 711 613 454 359 272 203 191 442 637 690 807
0 0 0 0 0 0 30 28 28 3 0 164 145 13 163 481 384 196 64 1 18 241 331 397 605 585 823 796 651 695 946 1065 1019 1033 1012 865 772 779 777 849 706 673 751 702 761 870 850 878 1001
0 0 0 0 0 0 62 79 44 5 8 138 34 18 7 401 379 174 24 1 0 37 54 123 351 320 438 339 608 684 759 859 1108 979 949 1000 866 846 906 1013 1003 901 1062 1040 1046 984 995 1017 1079
0 0 0 0 0 8 56 85 38 37 20 39 119 38 0 106 277 143 9 0 0 0 24 24 68 155 178 183 446 793 725 814 850 838 982 1056 621 590 740 834 814 1149 1293 1251 1199 1208 1223 1235 1335
0 0 0 0 0 0 77 78 108 65 61 210 0 32 0 49 393 271 126 70 10 4 0 11 20 63 85 364 354 391 410 510 604 674 665 618 330 176 491 608 1172 1279 1429 1439 1372 1384 1458 1532 759
0 0 0 0 0 3 69 59 114 38 164 69 8 3 1 66 295 448 200 113 31 0 0 0 4 25 46 109 175 273 286 358 417 434 404 391 330 114 241 162 302 606 967 825 695 701 393 396 317
0 0 0 0 0 0 27 122 71 33 303 84 39 33 20 16 8 338 354 179 77 15 10 1 0 6 5 8 256 271 314 285 331 346 277 192 135 34 15 113 77 169 232 530 363 7 0 46 201
0 0 0 0 0 0 0 60 32 11 289 169 46 103 32 25 15 0 439 333 209 76 28 11 1 0 0 45 109 110 173 296 198 117 164 155 17 0 19 54 115 188 169 104 10 0 13 422 641
0 0 0 0 0 0 0 0 7 78 429 267 223 185 49 20 18 0 0 369 336 141 61 29 3 0 0 63 12 4 60 93 55 76 129 199 183 184 67 50 32 91 124 131 141 214 671 980 923
0 0 0 0 0 0 0 0 0 11 205 442 532 52 241 182 112 23 0 0 414 264 130 65 19 0 0 36 0 0 21 51 55 81 83 316 247 220 335 171 154 99 194 311 260 1184 1279 1228 863
0 0 0 0 0 0 0 0 0 10 123 150 174 88 64 54 317 197 9 0 62 385 184 101 114 64 55 81 21 0 48 64 43 94 191 409 380 350 503 249 436 1026 946 1324 1613 1235 1157 1099 745
0 0 0 0 0 0 0 0 0 29 170 250 246 136 26 9 191 278 24 0 0 58 128 160 121 107 277 192 217 54 172 129 130 235 367 467 438 372 386 439 371 697 1243 1507 1237 1345 1255 1088 908
0 0 0 0 0 0 0 0 0 1 24 17 10 72 121 105 156 278 66 16 19 42 210 240 173 142 430 423 459 540 237 142 126 254 557 639 535 466 391 822 683 1100 1519 1110 1114 1110 1151 816 586
0 0 0 0 0 0 0 0 0 0 0 0 0 0 0 0 0 0 0 139 225 189 165 375 331 264 313 654 611 752 796 487 232 208 428 620 578 715 491 867 1268 1461 1478 1144 1153 1000 824 664 48
0 0 0 0 0 0 0 0 0 0 0 0 0 0 0 0 0 0 0 0 0 15 38 357 480 829 485 687 746 657 697 680 664 324 684 760 608 768 993 810 929 1235 1450 1264 1048 759 346 175 0
0 0 0 0 0 0 0 0 0 0 0 0 0 0 0 0 0 0 0 0 0 0 0 0 77 819 1260 987 1225 901 509 392 412 339 585 1191 871 881 1066 1229 1115 1407 1377 1185 778 418 8 0 0
0 0 0 0 0 0 0 0 0 0 0 0 0 0 0 0 0 0 0 0 0 0 0 0 0 354 1208 1191 1176 917 301 91 4 46 518 434 1346 1144 1131 1414 1593 1566 1295 911 380 30 0 0 0
0 0 0 0 0 0 0 0 0 0 0 0 0 0 0 0 0 0 0 0 0 0 0 0 0 0 17 132 86 29 1 0 1 1 42 590 1786 1573 1755 1792 1824 1631 1199 460 12 0 0 0 0
0 0 0 0 0 0 0 0 0 0 0 0 0 0 0 0 0 0 0 0 0 0 0 0 0 0 0 0 98 32 18 4 26 61 33 126 1806 2063 1974 1927 1889 1235 451 10 0 0 0 0 0
0 0 0 0 0 0 0 0 0 0 0 0 0 0 0 0 0 0 0 0 0 0 0 0 0 0 0 1 0 9 0 0 9 39 0 9 433 1648 1785 1529 602 383 69 0 0 0 0 0 0
0 0 0 0 0 0 0 0 0 0 0 0 0 0 0 0 0 0 0 0 0 0 0 0 0 0 0 0 0 0 0 0 0 0 5 4 52 563 1336 971 271 3 0 0 0 0 0 0 0
0 0 0 0 0 0 0 0 0 0 0 0 0 0 0 0 0 0 0 0 0 0 0 0 0 0 0 0 0 0 0 0 0 0 138 339 32 9 0 206 0 0 0 0 0 0 0 0 0
0 0 0 0 0 0 0 0 0 0 0 0 0 0 0 0 0 0 0 0 0 0 0 0 0 0 0 0 0 0 0 0 0 0 0 23 287 25 5 0 18 0 0 0 0 0 0 0 0
0 0 0 0 0 0 0 0 0 0 0 0 0 0 0 0 0 0 0 0 0 0 0 0 0 0 0 0 0 0 0 0 0 0 0 0 584 74 0 1 0 0 0 0 0 0 0 0 0
0 0 0 0 0 0 0 0 0 0 0 0 0 0 0 0 0 0 0 0 0 0 0 0 2 3 0 0 0 0 0 0 1 0 0 0 663 85 104 0 0 0 1 0 0 0 0 0 0
CIN
0 0 0 0 0 -267 -230 -305 -286 -204 -178 0 -281 -96 -125 -271 -188 0 -647 -632 -602 -443 -281 -138 -69 -102 -147 -137 -155 -212 -289 -279 -288 -218 -230 -170 -107 -60 -37 -10 -1 -13 -17 -22 -35 -47 -58 -70 -86
0 0 0 0 0 0 -62 -279 -258 0 -65 -199 -287 -115 -200 0 -363 -543 -550 -667 -581 -452 -353 -223 -116 -137 -188 -291 -200 -266 -280 -282 -220 -212 -230 -144 -98 -42 -46 -21 -15 -13 -23 -42 -78 -88 -101 -106 -107
0 0 0 0 -6 -32 0 -284 0 0 -127 -221 -333 -139 -92 -390 -481 -492 -602 -723 -594 -555 -463 -282 -131 -154 -180 -291 -277 -258 -280 -250 -206 -205 -209 -143 -96 -80 -40 -29 -30 -48 -60 -76 -115 -137 -132 -125 -122
0 0 0 0 -148 0 -200 -285 -389 0 -105 -55 -16 -172 0 -321 -362 -474 -607 -68 -18 -645 -512 -245 -168 -154 -214 -258 -258 -271 -285 -236 -204 -212 -203 -160 -126 -100 -61 -63 -53 -71 -97 -128 -153 -171 -185 -162 -136
0 0 0 0 0 0 -226 -203 -215 -242 -110 -130 -131 -190 -321 -362 -426 -504 -216 0 -174 -593 -415 -318 -182 -211 -248 -269 -293 -301 -259 -212 -165 -201 -202 -163 -119 -100 -83 -88 -103 -126 -148 -180 -191 -195 -181 -155 -131
0 0 0 0 0 -97 -168 -246 -271 -271 0 -163 -201 -266 -380 -408 -491 -500 -600 -335 -627 -490 -415 -315 -218 -188 -191 -241 -273 -249 -172 -164 -157 -172 -185 -151 -124 -111 -102 -105 -124 -156 -170 -181 -190 -164 -159 -151 -145
0 0 0 0 0 -22 -187 -260 -265 -192 -22 -135 -160 -180 -392 -351 -416 -425 -543 -141 -632 -490 -442 -382 -304 -288 -233 -228 -262 -243 -188 -147 -139 -133 -128 -138 -133 -111 -106 -97 -112 -129 -135 -146 -149 -145 -166 -162 -159
0 0 0 0 0 0 -132 -257 -238 -197 -177 -201 -186 -193 -203 -350 -389 -414 -607 -43 0 -609 -587 -521 -389 -376 -335 -347 -277 -246 -221 -190 -143 -144 -141 -125 -128 -124 -96 -94 -105 -129 -127 -147 -142 -146 -158 -176 -188
0 0 0 0 0 -23 -247 -200 -271 -266 -190 -178 -193 -211 0 -405 -500 -508 -323 0 0 0 -601 -632 -547 -474 -454 -429 -325 -224 -233 -210 -194 -183 -159 -138 -185 -192 -148 -150 -157 -124 -112 -141 -146 -143 -149 -168 -177
0 0 0 0 0 -8 -162 -149 -197 -160 -167 -172 0 -342 0 -373 -368 -494 -534 -612 -556 -422 0 -686 -654 -551 -509 -374 -371 -351 -330 -303 -272 -235 -242 -237 -290 -339 -228 -220 -130 -116 -112 -125 -141 -144 -142 -148 -228
0 0 0 0 0 -25 -89 -150 -195 -211 -185 -202 -251 -188 -50 -308 -381 -381 -480 -526 -656 0 0 -1 -567 -636 -591 -497 -464 -406 -403 -378 -344 -331 -341 -324 -309 -398 -330 -363 -320 -238 -183 -203 -232 -246 -308 -294 -308
0 0 0 0 0 0 -103 -112 -119 -158 -199 -263 -258 -252 -309 -284 -354 -409 -381 -456 -533 -679 -699 -99 0 -826 -806 -677 -462 -438 -413 -427 -397 -407 -410 -417 -442 -519 -552 -410 -424 -392 -355 -282 -347 -66 0 -429 -312
0 0 0 0 0 0 0 -104 -111 -158 -287 -295 -264 -265 -313 -276 -314 0 -361 -435 -476 -585 -571 -737 -238 0 0 -686 -621 -590 -536 -452 -517 -553 -501 -491 -321 0 -311 -447 -418 -403 -422 -445 -197 0 -219 -241 -181
0 0 0 0 0 0 0 0 -46 -241 -289 -262 -221 -223 -276 -277 -310 0 0 -401 -468 -566 -588 -661 -556 0 0 -669 -497 -148 -640 -590 -614 -600 -538 -479 -474 -438 -516 -513 -519 -482 -449 -420 -407 -333 -174 -115 -133
0 0 0 0 0 0 0 0 0 -220 -278 -223 -170 -261 -224 -277 -319 -312 0 0 -392 -475 -549 -656 -727 0 0 -691 0 0 -562 -598 -617 -552 -546 -424 -466 -449 -349 -434 -438 -456 -399 -330 -339 -114 -119 -114 -124
0 0 0 0 0 0 0 0 0 -95 -224 -222 -182 -276 -287 -339 -300 -268 -363 0 -489 -417 -538 -598 -595 -739 -766 -702 -755 0 -638 -587 -559 -491 -467 -381 -379 -393 -292 -377 -301 -164 -184 -142 -107 -133 -150 -142 -163
0 0 0 0 0 0 0 0 0 -343 -221 -214 -211 -238 -308 -306 -311 -317 -370 0 0 -524 -551 -604 -578 -678 -668 -642 -648 -701 -634 -598 -503 -449 -431 -374 -360 -357 -331 -318 -328 -232 -166 -133 -136 -147 -134 -140 -142
0 0 0 0 0 0 0 0 0 -20 -65 -49 -68 -196 -258 -316 -352 -277 -364 -432 -515 -514 -512 -529 -536 -569 -572 -589 -545 -550 -639 -673 -669 -552 -416 -358 -350 -350 -365 -287 -277 -205 -157 -180 -170 -169 -181 -202 -212
0 0 0 0 0 0 0 0 0 0 0 0 0 0 0 0 0 0 -2 -528 -484 -471 -479 -478 -544 -527 -552 -528 -540 -443 -434 -519 -619 -596 -486 -401 -367 -309 -366 -301 -215 -198 -160 -168 -159 -195 -211 -236 -518
0 0 0 0 0 0 0 0 0 0 0 0 0 0 0 0 0 0 0 0 0 -703 -529 -400 -357 -333 -387 -320 -325 -319 -328 -388 -406 -553 -459 -404 -393 -342 -294 -309 -267 -213 -163 -178 -195 -253 -371 -420 0
0 0 0 0 0 0 0 0 0 0 0 0 0 0 0 0 0 0 0 0 0 0 0 0 -687 -335 -275 -308 -271 -325 -365 -310 -246 -335 -415 -421 -422 -380 -300 -321 -253 -206 -188 -221 -278 -359 -257 0 0
0 0 0 0 0 0 0 0 0 0 0 0 0 0 0 0 0 0 0 0 0 0 0 0 -43 -502 -249 -234 -282 -322 -514 -592 -62 -572 -155 -198 -221 -361 -384 -285 -212 -207 -219 -289 -414 -590 0 0 0
0 0 0 0 0 0 0 0 0 0 0 0 0 0 0 0 0 0 0 0 0 0 0 0 0 0 -719 -592 -650 -809 -53 0 -56 -52 -622 -193 -112 -129 -114 -248 -209 -197 -225 -429 -226 0 0 0 0
0 0 0 0 0 0 0 0 0 0 0 0 0 0 0 0 0 0 0 0 0 0 0 0 0 0 0 0 -435 -573 -183 -46 -530 -453 -573 -425 -58 -99 -63 -107 -152 -257 -452 -505 0 0 0 0 0
0 0 0 0 0 0 0 0 0 0 0 0 0 0 0 0 0 0 0 0 0 0 0 0 0 0 0 -3 0 -1 0 -76 -577 -311 -12 -351 -282 -97 -56 -97 -294 -459 -681 0 0 0 0 0 0
0 0 0 0 0 0 0 0 0 0 0 0 0 0 0 0 0 0 0 0 0 0 0 0 0 0 0 0 0 0 0 0 0 0 -517 -554 -587 -173 -41 -80 -322 -240 0 0 0 0 0 0 0
0 0 0 0 0 0 0 0 0 0 0 0 0 0 0 0 0 0 0 0 0 0 0 0 0 0 0 0 0 0 0 0 0 0 -213 -128 -499 -182 0 -171 -15 0 0 0 0 0 0 0 0
0 0 0 0 0 0 0 0 0 0 0 0 0 0 0 0 0 0 0 0 0 0 0 0 0 0 0 0 0 0 0 0 0 0 0 -322 -181 -417 -45 -1 0 0 0 0 0 0 0 0 0
0 0 0 0 0 0 0 0 0 0 0 0 0 0 0 0 0 0 0 0 0 0 0 0 0 0 0 0 0 0 0 0 0 0 0 0 -50 -152 0 -44 0 0 0 0 0 0 0 0 0
0 0 0 0 0 0 0 0 0 0 0 0 0 0 0 0 0 0 0 0 0 0 0 0 0 0 0 0 0 0 0 0 0 -1 0 0 -22 -294 -229 0 0 0 0 0 0 0 0 0 0
Wind_Speed
3 5 2 3 5 5 2 6 4 5 4 2 8 1 9 4 2 4 2 11 17 14 13 13 16 18 19 18 15 15 14 14 15 15 15 15 14 14 13 12 11 12 11 10 9 8 7 7 7
1 4 4 2 7 4 2 1 17 14 8 7 12 6 6 3 5 10 9 12 14 14 12 12 17 17 17 18 14 15 15 15 15 15 15 14 13 12 12 11 11 10 9 8 7 5 4 4 4
2 1 4 5 3 5 5 6 7 9 14 5 5 0 4 4 11 9 12 15 13 11 10 13 17 17 17 18 15 16 15 15 15 15 14 14 12 11 10 9 9 9 7 6 4 3 2 4 4
4 4 4 4 5 6 8 15 25 7 7 7 12 4 4 6 8 9 18 16 10 9 7 16 17 17 17 17 16 16 16 16 15 15 14 13 12 10 8 8 7 7 6 4 2 1 3 5 5
3 4 3 1 4 7 7 18 15 11 8 4 5 3 3 3 19 21 18 14 14 9 8 12 17 17 17 17 17 17 16 15 14 14 14 13 12 10 9 8 7 6 4 4 4 5 6 6 6
5 3 2 2 4 4 1 9 7 4 5 3 8 5 3 14 23 18 16 13 11 13 8 10 16 15 15 16 16 15 14 14 14 13 13 13 11 10 9 8 7 7 6 6 7 7 7 7 7
5 3 4 5 4 3 4 8 5 5 2 5 6 4 6 12 15 19 16 14 13 11 9 7 8 12 15 15 15 15 14 13 12 12 12 12 12 10 9 8 8 8 8 9 10 9 9 9 9
5 4 2 2 2 8 8 5 6 4 2 5 2 4 8 12 15 15 14 13 13 12 9 7 6 6 6 8 16 16 15 14 13 12 12 12 12 11 10 9 10 11 12 12 11 9 10 11 11
4 1 2 3 1 4 11 9 4 4 3 1 4 7 8 14 19 15 12 9 8 8 9 8 7 6 6 6 9 14 16 15 14 13 13 9 4 6 9 10 14 13 13 13 12 11 11 11 12
6 3 5 7 5 1 13 11 8 3 4 3 8 16 10 12 15 17 14 11 11 11 10 10 9 9 8 8 6 6 7 5 5 5 5 4 5 5 8 11 15 14 14 15 14 13 11 11 4
4 6 7 12 9 12 13 6 7 8 2 6 19 18 18 14 14 15 15 18 20 17 12 14 12 10 10 7 4 4 3 3 4 6 5 4 4 4 5 3 4 5 10 6 7 6 3 6 4
3 8 7 13 12 2 11 13 5 5 11 19 24 26 23 19 14 16 16 15 13 16 17 16 15 14 12 5 7 6 5 4 5 6 6 4 4 4 6 4 6 4 3 6 5 3 5 6 7
6 7 8 12 10 6 5 15 11 13 16 19 18 18 21 20 17 11 17 17 15 16 16 17 16 14 13 10 8 7 7 7 7 5 7 6 5 5 5 6 5 4 4 5 5 5 5 5 5
4 6 10 8 10 5 6 3 6 12 17 17 13 18 22 23 21 16 12 18 19 18 17 17 17 15 14 12 12 9 8 7 5 5 7 10 7 6 5 5 5 5 5 5 4 5 4 4 4
4 5 9 5 3 5 5 1 4 19 20 19 19 13 19 20 19 21 17 18 20 17 18 19 19 17 16 16 13 9 8 8 8 7 8 10 9 7 6 5 5 5 5 6 5 5 3 3 2
6 3 4 7 4 6 9 8 9 13 19 18 17 6 11 13 21 20 18 18 21 19 21 20 17 18 17 16 12 10 8 8 7 8 7 11 11 9 6 5 5 4 2 2 2 2 2 3 1
7 3 5 11 2 3 3 9 8 10 11 14 14 11 12 9 10 14 14 16 20 22 21 22 22 21 21 17 12 12 12 8 8 8 8 11 12 11 6 5 5 4 3 3 2 1 3 1 1
6 1 4 6 10 4 10 13 5 8 13 14 13 12 7 12 18 19 12 8 10 18 18 20 18 19 19 13 11 7 8 9 8 10 10 12 11 11 9 5 5 4 3 2 2 2 1 2 1
2 4 9 6 4 1 5 6 29 24 29 27 23 28 26 24 23 24 23 21 15 15 14 11 22 20 14 10 10 10 10 9 7 8 12 11 11 12 9 6 5 5 5 5 4 2 3 1 0
7 8 6 6 3 5 28 26 28 29 26 26 25 26 25 24 24 26 25 25 22 20 20 12 3 5 7 4 3 4 7 6 8 5 5 9 12 11 10 8 7 6 4 5 5 4 3 1 2
7 7 4 5 4 2 14 18 22 20 24 24 24 21 23 23 22 22 25 26 25 25 21 17 14 7 3 2 2 2 5 6 8 8 5 11 13 13 12 10 9 7 6 6 5 5 6 4 1
1 2 2 2 4 4 3 6 19 14 20 26 27 28 26 25 19 21 21 24 23 20 20 21 19 18 7 4 3 6 8 4 4 11 13 7 10 12 14 12 11 10 7 8 6 5 4 5 5
6 1 2 2 4 3 6 10 8 17 23 23 23 26 24 25 23 27 26 22 21 21 18 18 19 17 16 13 7 5 7 6 2 6 15 17 6 9 12 12 12 10 8 8 8 6 5 3 4
2 5 7 5 3 7 9 8 12 10 18 20 21 22 23 23 22 20 21 21 22 21 22 22 23 17 15 14 8 8 8 2 7 13 10 11 10 7 12 10 11 10 8 10 8 6 6 5 5
9 7 4 5 6 3 4 14 5 14 17 17 18 20 21 21 23 23 24 20 22 24 24 21 23 21 20 16 16 13 8 7 10 21 11 9 10 8 10 10 9 8 8 8 7 7 4 5 5
6 7 6 5 4 6 2 7 5 11 12 14 16 16 17 20 19 20 21 21 20 21 22 24 23 22 20 21 19 14 11 5 5 10 9 8 9 9 12 11 8 7 9 9 9 6 3 3 4
2 5 4 6 2 5 5 6 8 18 16 17 19 19 20 20 19 20 19 18 19 20 22 22 21 23 23 21 16 17 15 14 12 15 15 11 14 13 16 13 12 12 14 13 10 7 7 3 3
8 2 4 5 4 4 4 4 6 20 19 19 19 18 16 16 18 19 18 18 16 17 18 22 20 20 20 20 17 16 19 18 16 13 18 21 17 9 10 21 13 14 11 14 11 10 7 5 3
7 5 6 6 3 5 5 3 7 10 11 17 19 21 21 18 17 16 15 15 15 15 15 16 18 24 21 21 22 20 17 18 18 15 14 20 17 17 18 17 11 12 11 8 8 12 11 9 6
7 3 4 5 3 3 4 2 5 8 6 10 12 16 17 18 18 18 19 19 18 18 19 18 16 17 21 20 21 23 20 18 18 18 17 20 12 16 18 15 15 16 14 18 15 11 11 12 9
Wind_Direction
140 176 151 61 53 86 312 263 256 281 316 317 281 322 111 26 167 205 117 142 135 148 152 152 146 140 144 144 146 127 133 130 128 126 121 120 121 120 119 117 114 111 107 101 95 88 79 75 74
125 145 33 57 81 89 236 319 283 285 211 343 323 282 57 101 67 118 110 139 141 146 144 148 146 144 146 147 137 138 139 136 132 130 127 127 128 127 123 121 118 114 111 106 99 84 61 54 53
203 231 90 93 117 168 188 220 270 262 272 211 277 37 83 108 120 144 127 136 147 139 140 152 146 146 146 151 147 146 143 142 137 134 134 134 132 127 124 125 125 123 118 114 109 82 18 345 337
158 20 25 108 203 244 196 200 222 351 327 233 216 70 44 175 138 143 134 139 133 135 135 147 149 148 151 153 153 150 148 146 145 142 140 140 139 138 136 137 136 135 132 132 136 202 275 286 313
56 73 63 204 259 259 208 209 197 235 283 176 174 128 74 61 117 129 142 139 140 141 140 144 151 154 157 156 155 153 154 152 152 149 147 148 148 149 150 154 157 154 163 180 223 247 262 284 301
10 99 35 320 315 272 251 205 211 223 262 87 95 82 41 139 129 144 141 139 146 140 136 151 155 157 159 158 158 157 159 159 159 158 156 158 160 163 168 172 180 178 197 218 239 258 274 285 296
121 89 220 183 257 252 195 176 261 323 291 69 116 77 125 160 144 145 139 139 144 137 136 144 154 165 162 161 161 164 165 164 165 165 166 169 173 179 186 190 203 207 216 228 237 249 266 274 278
106 106 45 303 95 252 208 107 201 215 60 95 118 150 179 178 150 132 137 139 141 145 146 146 154 153 156 169 169 172 172 173 174 177 176 180 186 190 203 208 217 221 228 237 243 247 261 272 278
92 302 295 257 3 345 140 167 211 229 74 108 203 137 165 158 130 133 132 124 129 149 155 154 160 164 159 170 180 180 180 182 184 188 189 188 196 204 219 220 225 228 236 247 251 250 256 270 280
118 206 243 206 212 136 177 189 169 196 176 56 100 113 115 136 151 146 152 157 168 165 177 168 169 174 168 178 185 180 192 186 186 196 197 193 209 213 224 232 234 233 237 245 255 259 258 263 271
211 222 232 278 266 147 186 219 177 136 19 186 135 154 160 165 162 161 173 173 182 180 173 177 173 178 179 185 170 186 197 186 199 204 202 205 217 233 240 253 250 234 243 245 253 258 254 250 246
231 254 233 268 274 264 179 175 202 192 193 173 159 171 168 171 183 180 183 191 182 180 184 176 180 176 184 170 179 191 193 195 205 211 207 197 222 227 242 235 244 236 215 236 250 253 244 245 229
189 264 267 260 284 247 145 198 180 205 181 187 176 163 165 182 196 190 190 189 187 184 186 184 179 183 182 172 182 190 200 200 205 202 209 201 208 224 230 244 235 237 215 230 240 247 265 265 229
259 287 277 291 280 230 190 211 133 196 172 190 183 187 181 185 196 200 178 192 189 189 188 182 183 186 181 183 182 194 196 200 197 202 213 211 213 221 219 228 217 225 215 228 225 227 235 221 180
247 318 333 276 267 279 149 1 257 172 188 189 197 204 188 192 196 203 199 190 189 194 186 187 183 184 186 188 185 189 199 193 197 205 208 209 211 220 213 221 218 213 207 221 214 209 167 90 43
3 32 342 286 336 287 91 269 268 166 176 197 219 201 199 214 214 208 202 189 193 187 187 185 186 186 189 192 189 187 190 200 197 206 204 211 214 210 211 213 221 233 244 241 175 224 90 97 73
2 259 314 326 331 310 122 262 261 154 170 197 217 215 220 222 244 246 218 205 189 191 184 185 187 186 192 195 192 190 188 191 197 204 207 210 213 214 203 207 222 217 225 204 190 138 131 117 323
229 297 317 269 289 179 244 251 288 79 39 18 10 271 319 354 347 321 326 281 198 187 186 183 189 190 189 188 190 189 180 196 187 195 202 202 208 208 200 216 213 200 168 172 192 148 95 131 217
222 237 248 242 227 198 312 43 44 50 59 57 45 42 45 33 19 9 25 23 31 15 334 218 187 192 183 184 183 186 194 197 197 197 194 194 201 206 195 203 199 184 183 199 188 137 120 82 142
218 254 269 275 287 100 72 60 50 44 48 50 45 47 42 38 30 23 26 31 31 23 7 358 32 337 305 292 247 253 219 215 207 178 197 195 201 204 195 195 202 188 177 177 180 161 133 138 164
199 199 234 216 337 55 118 66 45 45 51 49 52 50 43 40 34 26 28 32 29 22 12 355 346 333 204 151 117 40 42 16 354 335 266 212 201 201 200 195 200 181 178 173 180 172 156 160 213
112 329 49 61 71 168 57 163 46 43 50 42 36 33 28 20 28 26 29 31 24 17 13 10 3 360 338 92 73 94 84 72 25 339 309 282 274 210 198 195 199 190 179 168 168 176 168 143 163
178 102 61 100 104 95 39 74 330 36 36 34 29 27 26 20 27 25 21 21 16 11 9 10 16 14 9 356 15 110 123 137 91 343 330 312 255 246 244 198 196 190 177 169 159 157 161 162 147
89 54 46 53 80 52 296 109 24 23 19 28 27 25 17 20 22 24 20 22 11 11 8 3 4 9 5 15 316 319 299 11 14 303 306 303 285 234 232 232 203 181 170 168 160 142 166 157 138
64 55 4 15 32 152 169 68 46 34 20 25 27 22 16 14 14 10 16 26 9 4 3 1 360 356 353 1 8 352 329 311 198 243 265 270 289 266 236 207 208 182 172 154 137 128 156 146 144
57 120 145 160 136 170 13 116 75 41 22 28 28 19 17 15 10 9 6 4 5 357 358 352 350 344 350 347 350 352 330 291 292 289 265 237 235 263 255 217 204 151 146 130 129 126 155 136 137
355 60 177 106 31 82 109 99 210 18 19 17 13 13 9 8 4 4 1 1 358 356 351 345 343 340 338 336 335 335 333 322 321 316 281 269 247 249 238 233 171 160 154 140 154 146 135 159 169
85 6 77 9 147 148 69 75 345 353 354 359 3 6 8 2 358 358 356 353 353 351 345 335 340 335 328 330 332 326 318 314 314 301 300 302 269 262 272 252 217 155 182 144 149 128 126 156 197
5 23 40 107 81 184 146 97 35 353 9 355 353 352 351 358 357 358 354 350 351 351 346 336 339 329 328 329 322 318 311 306 299 296 292 296 256 216 218 183 178 150 158 127 139 138 153 167 183
76 68 90 116 243 49 98 115 38 11 43 6 351 345 344 349 353 353 351 351 355 356 351 343 335 325 321 318 314 310 306 304 299 294 294 304 249 197 197 179 162 160 168 160 159 166 174 171 165